Location: Wells
(51.2093°N, 2.6446°W)
Time: 20:46:59
(UTC+00:00)

ITAMSAT 1 - Visible Passes

Search period start: 16 March 2026 00:00
Search period end: 26 March 2026 00:00
Orbit: 781 x 794 km, 98.7° (Epoch: 16 March)

Date Brightness Start Highest point End Pass type
(mag) Time Alt. Az. Time Alt. Az. Time Alt. Az.
16 Mar 8.2 20:33:24 39° ENE 20:33:48 40° ENE 20:38:36 10° N visible
16 Mar 9.0 22:14:04 34° WNW 22:14:04 34° WNW 22:18:03 10° NNW visible
17 Mar 8.8 20:02:35 23° ENE 20:03:43 25° ENE 20:07:52 10° N visible
17 Mar 8.0 21:43:14 60° WNW 21:43:14 60° WNW 21:47:55 10° NNW visible
18 Mar 9.4 19:31:44 13° ENE 19:33:45 16° NE 19:36:47 10° NNE visible
18 Mar 7.5 21:12:24 77° ENE 21:12:24 77° ENE 21:17:35 10° NNW visible
18 Mar 9.9 22:53:03 18° W 22:53:03 18° W 22:55:56 10° NW visible
19 Mar 8.0 20:41:34 44° E 20:42:07 45° ENE 20:47:03 10° N visible
19 Mar 9.1 22:22:13 31° W 22:22:13 31° W 22:26:19 10° NNW visible
20 Mar 8.7 20:10:43 25° E 20:12:00 28° ENE 20:16:22 10° N visible
20 Mar 8.2 21:51:23 54° W 21:51:23 54° W 21:56:16 10° NNW visible
21 Mar 9.3 19:39:54 14° E 19:42:01 18° NE 19:45:25 10° NNE visible
21 Mar 7.5 21:20:33 84° SE 21:20:44 88° ENE 21:25:59 10° NNW visible
21 Mar 10.0 23:01:12 16° W 23:01:12 16° W 23:03:59 10° NW visible
22 Mar 9.7 19:10:34 10° ENE 19:12:09 11° NE 19:13:43 10° NNE visible
22 Mar 7.8 20:49:43 48° E 20:50:27 52° ENE 20:55:30 10° N visible
22 Mar 9.3 22:30:22 27° W 22:30:22 27° W 22:34:33 10° NW visible
23 Mar 8.5 20:18:53 27° E 20:20:18 32° ENE 20:24:52 10° N visible
23 Mar 8.4 21:59:32 46° W 21:59:34 46° W 22:04:35 10° NNW visible
24 Mar 9.1 19:48:03 16° E 19:50:16 20° NE 19:53:59 10° N visible
24 Mar 7.5 21:28:43 74° SSW 21:29:07 81° WSW 21:34:22 10° NNW visible
24 Mar 10.1 23:09:22 13° W 23:09:23 13° W 23:11:54 10° NW visible
25 Mar 9.6 19:18:07 10° ENE 19:20:22 13° NE 19:22:38 10° NNE visible
25 Mar 7.7 20:57:53 52° ESE 20:58:48 60° ENE 21:03:56 10° N visible
25 Mar 9.4 22:38:32 23° W 22:38:37 24° W 22:42:46 10° NW visible
